Weather in Bol'shoye Sudach'ye

Russia / Volgograd Oblast     50°49′40″N   44°05′18″E
temp.,
°C
wind,
m/s
gust,
m/s
humid.,
%
clouds,
%
prec.,
mm/h
press.,
hPa
HPBL,
m
26 june, sun
sun2600:00+17nne22832 0.0 101417
03:00+16ne33895 0.0 101548
06:00+18ne39841 0.0 1016247
09:00+23ne69570 0.0 1016964
12:00+26ne68470 0.0 10162017
15:00+26nne78452 0.0 10162030
18:00+24nne59560 0.0 1016489
21:00+18ne512700 0.0 1018266
27 june, mon
mon2700:00+15ene412780 0.0 1019305
03:00+13ene410820 0.0 1020212
06:00+15ne48760 0.0 1021259
09:00+20ne56550 0.0 1021854
12:00+23ne45440 0.0 10201246
15:00+25ne45410 0.0 10191336
18:00+24nne24530 0.0 1018474
21:00+19nnw22640 0.0 101911
28 june, tue
tue2800:00+17n22770 0.0 101811
03:00+16nw22790 0.0 101719
06:00+19wnw35763 0.0 1016159
09:00+24nw45660 0.0 1015603
12:00+28nne67525 0.7 10151992
15:00+28nne77445 0.7 10152480
18:00+24nne79600 0.0 1016770
21:00+17ne411660 0.0 1018253
29 june, wed
wed2900:00+14ene38800 0.0 1020179
03:00+12ene37770 0.0 1021144
06:00+13e36690 0.0 1022251
09:00+17ene34530 0.0 10221058
12:00+20ne44453 0.0 10211871
15:00+22nne344011 0.0 10202158
18:00+20n455043 0.0 1020700
21:00+17nne235890 0.0 102062
30 june, thu
thu3000:00+15ne37594 0.0 1020160
03:00+12nne22700 0.0 102019
06:00+13n35690 0.0 1020155
09:00+19n46502 0.0 10201294
12:00+21nnw56420 0.0 10191944
15:00+23nnw56408 0.0 10182016
18:00+21nnw57515 0.0 1017758
21:00+16nw34675 0.0 101742